Location: St. Louis
(38.6270°N, 90.1994°W)
Time: 07:16:04
(UTC-06:00)

Altair - Pass Details

Date: 06 December 2021
Orbit: 1501 x 1683 km, 47.2° (Epoch: 17 January)

Event Time Altitude Azimuth Distance (km) Brightness Sun altitude
Rises 12:15:57 0° 188° (S) 4,854 11.4 28.5°
Reaches altitude 10° 12:20:00 10° 174° (S) 3,843 11.1 28.4°
Maximum altitude 12:27:03 23° 127° (SE) 2,906 9.5 28.2°
Drops below altitude 10° 12:33:54 10° 80° (E) 3,748 9.4 28.0°
Sets 12:37:44 0° 67° (ENE) 4,707 9.7 27.9°
